Time,TemperatureF,DewpointF,PressureIn,WindDirection,WindDirectionDegrees,WindSpeedMPH,WindSpeedGustMPH,Humidity,HourlyPrecipIn,Conditions,Clouds,dailyrainin,SoftwareType,DateUTC
2014-09-30 00:09:00,63.6,62.1,29.94,South,178,0.0,0.0,95,0.00,,,0.01,Wunderground v.1.15,2014-09-30 04:09:00,
2014-09-30 00:19:00,63.5,62.0,29.94,South,178,0.0,0.0,95,0.00,,,0.00,Wunderground v.1.15,2014-09-30 04:19:00,
2014-09-30 00:24:00,63.5,62.0,29.94,South,178,0.0,0.0,95,0.00,,,0.00,Wunderground v.1.15,2014-09-30 04:24:00,
2014-09-30 00:34:00,63.4,61.9,29.93,South,178,0.0,0.0,95,0.00,,,0.00,Wunderground v.1.15,2014-09-30 04:34:00,
2014-09-30 00:44:00,63.4,61.9,29.93,South,178,0.0,0.0,95,0.00,,,0.00,Wunderground v.1.15,2014-09-30 04:44:00,
2014-09-30 00:54:00,63.4,61.9,29.93,South,178,0.0,0.0,95,0.00,,,0.00,Wunderground v.1.15,2014-09-30 04:54:00,
2014-09-30 00:59:00,63.4,61.9,29.94,South,178,0.0,0.0,95,0.00,,,0.00,Wunderground v.1.15,2014-09-30 04:59:00,
2014-09-30 01:09:00,63.5,62.3,29.94,South,178,0.0,0.0,96,0.00,,,0.00,Wunderground v.1.15,2014-09-30 05:09:00,
2014-09-30 01:19:00,63.5,62.3,29.94,South,178,0.0,0.0,96,0.00,,,0.00,Wunderground v.1.15,2014-09-30 05:19:00,
2014-09-30 01:25:00,63.5,62.3,29.94,South,178,0.0,0.0,96,0.00,,,0.00,Wunderground v.1.15,2014-09-30 05:25:00,
2014-09-30 01:30:00,63.6,62.4,29.94,South,178,0.0,0.0,96,0.00,,,0.00,Wunderground v.1.15,2014-09-30 05:30:00,
2014-09-30 01:40:00,63.7,62.5,29.94,South,178,0.0,0.0,96,0.00,,,0.00,Wunderground v.1.15,2014-09-30 05:40:00,
2014-09-30 01:50:00,63.8,62.6,29.94,South,178,0.0,0.0,96,0.00,,,0.00,Wunderground v.1.15,2014-09-30 05:50:00,
2014-09-30 01:55:00,63.8,62.6,29.94,South,178,0.0,0.0,96,0.00,,,0.00,Wunderground v.1.15,2014-09-30 05:55:00,
2014-09-30 02:00:00,63.7,62.5,29.94,South,178,0.0,0.0,96,0.00,,,0.00,Wunderground v.1.15,2014-09-30 06:00:00,
2014-09-30 02:10:00,63.5,62.3,29.94,South,178,0.0,0.0,96,0.00,,,0.00,Wunderground v.1.15,2014-09-30 06:10:00,
2014-09-30 02:19:00,63.5,62.3,29.93,South,178,0.0,0.0,96,0.00,,,0.00,Wunderground v.1.15,2014-09-30 06:19:00,
2014-09-30 02:24:00,63.4,62.2,29.93,South,178,0.0,0.0,96,0.00,,,0.00,Wunderground v.1.15,2014-09-30 06:24:00,
2014-09-30 02:30:00,63.4,62.2,29.93,South,178,0.0,0.0,96,0.00,,,0.00,Wunderground v.1.15,2014-09-30 06:30:00,
2014-09-30 02:39:00,63.2,62.0,29.93,South,178,0.0,0.0,96,0.00,,,0.00,Wunderground v.1.15,2014-09-30 06:39:00,
2014-09-30 02:49:00,63.1,61.9,29.92,South,178,0.0,0.0,96,0.00,,,0.00,Wunderground v.1.15,2014-09-30 06:49:00,
2014-09-30 02:54:00,63.1,61.9,29.92,South,178,0.0,0.0,96,0.00,,,0.00,Wunderground v.1.15,2014-09-30 06:54:00,
2014-09-30 02:59:00,63.0,61.8,29.93,South,178,0.0,0.0,96,0.00,,,0.00,Wunderground v.1.15,2014-09-30 06:59:00,
2014-09-30 03:09:00,62.9,61.7,29.93,South,178,0.0,0.0,96,0.00,,,0.00,Wunderground v.1.15,2014-09-30 07:09:00,
2014-09-30 03:19:00,62.7,61.5,29.93,South,178,0.0,0.0,96,0.00,,,0.00,Wunderground v.1.15,2014-09-30 07:19:00,
2014-09-30 03:24:00,62.7,61.5,29.93,South,178,0.0,0.0,96,0.00,,,0.00,Wunderground v.1.15,2014-09-30 07:24:00,
2014-09-30 03:34:00,62.5,61.3,29.93,South,178,0.0,0.0,96,0.00,,,0.00,Wunderground v.1.15,2014-09-30 07:34:00,
2014-09-30 03:44:00,62.3,61.1,29.93,South,178,0.0,0.0,96,0.00,,,0.00,Wunderground v.1.15,2014-09-30 07:44:00,
2014-09-30 03:49:00,62.3,61.1,29.93,South,178,0.0,0.0,96,0.00,,,0.00,Wunderground v.1.15,2014-09-30 07:49:00,
2014-09-30 03:54:00,62.3,61.1,29.92,South,178,0.0,0.0,96,0.00,,,0.00,Wunderground v.1.15,2014-09-30 07:54:00,
2014-09-30 03:59:00,62.2,61.0,29.92,South,178,0.0,0.0,96,0.00,,,0.00,Wunderground v.1.15,2014-09-30 07:59:00,
2014-09-30 04:09:00,62.0,60.8,29.92,South,178,0.0,0.0,96,0.00,,,0.00,Wunderground v.1.15,2014-09-30 08:09:00,
2014-09-30 04:20:00,61.9,60.7,29.92,South,178,0.0,0.0,96,0.00,,,0.00,Wunderground v.1.15,2014-09-30 08:20:00,
2014-09-30 04:25:00,61.8,60.6,29.92,South,178,0.0,0.0,96,0.00,,,0.00,Wunderground v.1.15,2014-09-30 08:25:00,
2014-09-30 04:35:00,61.6,60.4,29.93,South,178,0.0,0.0,96,0.00,,,0.00,Wunderground v.1.15,2014-09-30 08:35:00,
2014-09-30 04:45:00,61.5,60.3,29.92,South,178,0.0,0.0,96,0.00,,,0.00,Wunderground v.1.15,2014-09-30 08:45:00,
2014-09-30 04:50:00,61.5,60.3,29.92,South,178,0.0,0.0,96,0.00,,,0.00,Wunderground v.1.15,2014-09-30 08:50:00,
2014-09-30 05:00:00,61.3,60.2,29.92,South,178,0.0,0.0,96,0.00,,,0.00,Wunderground v.1.15,2014-09-30 09:00:00,
2014-09-30 05:10:00,61.2,60.3,29.93,South,178,0.0,0.0,97,0.00,,,0.00,Wunderground v.1.15,2014-09-30 09:10:00,
2014-09-30 05:20:00,61.0,59.9,29.92,South,178,0.0,0.0,96,0.00,,,0.00,Wunderground v.1.15,2014-09-30 09:20:00,
2014-09-30 05:24:00,60.9,59.8,29.93,South,178,0.0,0.0,96,0.00,,,0.00,Wunderground v.1.15,2014-09-30 09:24:00,
2014-09-30 05:29:00,60.9,60.0,29.93,South,178,0.0,0.0,97,0.00,,,0.00,Wunderground v.1.15,2014-09-30 09:29:00,
2014-09-30 05:34:00,60.9,60.0,29.93,South,178,0.0,0.0,97,0.00,,,0.00,Wunderground v.1.15,2014-09-30 09:34:00,
2014-09-30 05:44:00,60.9,60.0,29.93,South,178,0.0,0.0,97,0.00,,,0.00,Wunderground v.1.15,2014-09-30 09:44:00,
2014-09-30 05:49:00,60.8,59.9,29.93,South,178,0.0,0.0,97,0.00,,,0.00,Wunderground v.1.15,2014-09-30 09:49:00,
2014-09-30 05:59:00,61.0,60.1,29.93,South,178,0.0,0.0,97,0.00,,,0.00,Wunderground v.1.15,2014-09-30 09:59:00,
2014-09-30 06:09:00,60.9,60.0,29.94,South,178,0.0,0.0,97,0.00,,,0.00,Wunderground v.1.15,2014-09-30 10:09:00,
2014-09-30 06:14:00,60.9,60.0,29.94,South,178,0.0,0.0,97,0.00,,,0.00,Wunderground v.1.15,2014-09-30 10:14:00,
2014-09-30 06:24:00,60.9,60.0,29.93,South,178,0.0,0.0,97,0.00,,,0.00,Wunderground v.1.15,2014-09-30 10:24:00,
2014-09-30 06:29:00,60.9,60.0,29.93,South,178,0.0,0.0,97,0.00,,,0.00,Wunderground v.1.15,2014-09-30 10:29:00,
2014-09-30 06:39:00,60.9,60.0,29.94,South,178,0.0,0.0,97,0.00,,,0.00,Wunderground v.1.15,2014-09-30 10:39:00,
2014-09-30 06:44:00,60.8,59.9,29.94,South,178,0.0,0.0,97,0.00,,,0.00,Wunderground v.1.15,2014-09-30 10:44:00,
2014-09-30 06:49:00,60.8,59.9,29.94,South,178,0.0,0.0,97,0.00,,,0.00,Wunderground v.1.15,2014-09-30 10:49:00,
2014-09-30 06:59:00,60.7,59.8,29.95,South,178,0.0,0.0,97,0.00,,,0.00,Wunderground v.1.15,2014-09-30 10:59:00,
2014-09-30 07:09:00,60.8,59.9,29.94,South,178,0.0,0.0,97,0.00,,,0.00,Wunderground v.1.15,2014-09-30 11:09:00,
2014-09-30 07:20:00,60.7,59.8,29.95,South,178,0.0,0.0,97,0.00,,,0.00,Wunderground v.1.15,2014-09-30 11:20:00,
2014-09-30 07:30:00,60.7,59.8,29.95,South,178,0.0,0.0,97,0.00,,,0.00,Wunderground v.1.15,2014-09-30 11:30:00,
2014-09-30 07:40:00,60.7,59.8,29.96,South,178,0.0,0.0,97,0.00,,,0.00,Wunderground v.1.15,2014-09-30 11:40:00,
2014-09-30 07:45:00,60.8,59.9,29.96,South,178,0.0,0.0,97,0.00,,,0.00,Wunderground v.1.15,2014-09-30 11:45:00,
2014-09-30 07:55:00,60.9,60.0,29.96,South,178,0.0,1.0,97,0.00,,,0.00,Wunderground v.1.15,2014-09-30 11:55:00,
2014-09-30 08:05:00,61.0,60.1,29.96,South,178,0.0,0.0,97,0.00,,,0.00,Wunderground v.1.15,2014-09-30 12:05:00,
2014-09-30 08:14:00,61.1,60.2,29.96,South,178,0.0,0.0,97,0.00,,,0.00,Wunderground v.1.15,2014-09-30 12:14:00,
2014-09-30 08:19:00,61.1,60.2,29.96,South,178,0.0,0.0,97,0.00,,,0.00,Wunderground v.1.15,2014-09-30 12:19:00,
2014-09-30 08:24:00,61.1,60.2,29.96,South,178,0.0,0.0,97,0.00,,,0.00,Wunderground v.1.15,2014-09-30 12:24:00,
2014-09-30 08:30:00,61.2,60.3,29.95,South,178,0.0,0.0,97,0.00,,,0.00,Wunderground v.1.15,2014-09-30 12:30:00,
2014-09-30 08:35:00,61.3,60.4,29.95,South,178,0.0,0.0,97,0.00,,,0.00,Wunderground v.1.15,2014-09-30 12:35:00,
2014-09-30 08:40:00,61.4,60.5,29.95,South,178,0.0,0.0,97,0.00,,,0.00,Wunderground v.1.15,2014-09-30 12:40:00,
2014-09-30 08:49:00,61.5,60.6,29.96,South,178,0.0,1.0,97,0.00,,,0.00,Wunderground v.1.15,2014-09-30 12:49:00,
2014-09-30 08:59:00,61.6,60.4,29.96,South,178,0.0,0.0,96,0.00,,,0.00,Wunderground v.1.15,2014-09-30 12:59:00,
2014-09-30 09:09:00,61.9,60.5,29.96,South,178,0.0,0.0,95,0.00,,,0.00,Wunderground v.1.15,2014-09-30 13:09:00,
2014-09-30 09:14:00,61.9,60.2,29.96,South,178,0.0,0.0,94,0.00,,,0.00,Wunderground v.1.15,2014-09-30 13:14:00,
2014-09-30 09:19:00,61.9,60.2,29.96,South,178,0.0,0.0,94,0.00,,,0.00,Wunderground v.1.15,2014-09-30 13:19:00,
2014-09-30 09:29:00,62.3,60.8,29.96,South,178,0.0,0.0,95,0.00,,,0.00,Wunderground v.1.15,2014-09-30 13:29:00,
2014-09-30 09:34:00,62.5,61.0,29.96,South,178,0.0,0.0,95,0.00,,,0.00,Wunderground v.1.15,2014-09-30 13:34:00,
2014-09-30 09:44:00,62.9,60.8,29.96,South,178,0.0,1.0,93,0.00,,,0.00,Wunderground v.1.15,2014-09-30 13:44:00,
2014-09-30 09:49:00,63.5,61.1,29.96,South,178,0.0,0.0,92,0.00,,,0.00,Wunderground v.1.15,2014-09-30 13:49:00,
2014-09-30 09:59:00,64.4,62.0,29.95,South,178,0.0,0.0,92,0.00,,,0.00,Wunderground v.1.15,2014-09-30 13:59:00,
2014-09-30 10:09:00,65.5,62.2,29.95,South,178,0.0,0.0,89,0.00,,,0.00,Wunderground v.1.15,2014-09-30 14:09:00,
2014-09-30 10:15:00,66.0,62.0,29.95,South,189,0.0,0.0,87,0.00,,,0.00,Wunderground v.1.15,2014-09-30 14:15:00,
2014-09-30 10:25:00,66.7,62.7,29.95,SSE,149,0.0,0.0,87,0.00,,,0.00,Wunderground v.1.15,2014-09-30 14:25:00,
2014-09-30 10:35:00,67.6,62.6,29.94,SSE,149,0.0,0.0,84,0.00,,,0.00,Wunderground v.1.15,2014-09-30 14:35:00,
2014-09-30 10:44:00,68.4,62.0,29.94,SSE,149,0.0,1.0,80,0.00,,,0.00,Wunderground v.1.15,2014-09-30 14:44:00,
2014-09-30 10:50:00,69.0,62.6,29.94,SSE,149,0.0,1.0,80,0.00,,,0.00,Wunderground v.1.15,2014-09-30 14:50:00,
2014-09-30 11:00:00,70.1,62.9,29.95,SSE,149,0.0,0.0,78,0.00,,,0.00,Wunderground v.1.15,2014-09-30 15:00:00,
2014-09-30 11:09:00,71.0,61.9,29.94,East,81,1.0,1.0,73,0.00,,,0.00,Wunderground v.1.15,2014-09-30 15:09:00,
2014-09-30 11:15:00,71.4,62.3,29.94,East,81,1.0,1.0,73,0.00,,,0.00,Wunderground v.1.15,2014-09-30 15:15:00,
2014-09-30 11:20:00,71.6,61.7,29.94,SSE,157,1.0,1.0,71,0.00,,,0.00,Wunderground v.1.15,2014-09-30 15:20:00,
2014-09-30 11:29:00,72.3,60.7,29.94,East,93,0.0,0.0,67,0.00,,,0.00,Wunderground v.1.15,2014-09-30 15:29:00,
2014-09-30 11:34:00,72.6,61.0,29.94,East,92,1.0,1.0,67,0.00,,,0.00,Wunderground v.1.15,2014-09-30 15:34:00,
2014-09-30 11:40:00,73.0,60.1,29.94,NW,323,1.0,1.0,64,0.00,,,0.00,Wunderground v.1.15,2014-09-30 15:40:00,
2014-09-30 11:49:00,73.5,61.9,29.94,NW,323,0.0,3.0,67,0.00,,,0.00,Wunderground v.1.15,2014-09-30 15:49:00,
2014-09-30 11:59:00,74.4,60.1,29.94,NNE,31,0.0,1.0,61,0.00,,,0.00,Wunderground v.1.15,2014-09-30 15:59:00,
2014-09-30 12:09:00,74.8,60.4,29.93,ESE,108,0.0,1.0,61,0.00,,,0.00,Wunderground v.1.15,2014-09-30 16:09:00,
2014-09-30 12:19:00,74.8,59.5,29.94,ESE,120,1.0,2.0,59,0.00,,,0.00,Wunderground v.1.15,2014-09-30 16:19:00,
2014-09-30 12:29:00,75.2,57.9,29.93,SE,137,1.0,2.0,55,0.00,,,0.00,Wunderground v.1.15,2014-09-30 16:29:00,
2014-09-30 12:34:00,75.0,58.7,29.93,WNW,284,1.0,2.0,57,0.00,,,0.00,Wunderground v.1.15,2014-09-30 16:34:00,
2014-09-30 12:44:00,75.0,60.2,29.93,South,178,0.0,2.0,60,0.00,,,0.00,Wunderground v.1.15,2014-09-30 16:44:00,
2014-09-30 12:54:00,75.7,59.4,29.93,SE,143,0.0,2.0,57,0.00,,,0.00,Wunderground v.1.15,2014-09-30 16:54:00,
2014-09-30 12:59:00,75.8,59.0,29.93,NE,55,1.0,1.0,56,0.00,,,0.00,Wunderground v.1.15,2014-09-30 16:59:00,
2014-09-30 13:09:00,76.4,60.0,29.93,ESE,112,1.0,2.0,57,0.00,,,0.00,Wunderground v.1.15,2014-09-30 17:09:00,
2014-09-30 13:14:00,76.7,59.3,29.93,SSE,166,1.0,2.0,55,0.00,,,0.00,Wunderground v.1.15,2014-09-30 17:14:00,
2014-09-30 13:15:00,76.7,58.8,29.93,SSE,166,1.0,2.0,54,0.00,,,0.00,Wunderground v.1.15,2014-09-30 17:15:00,
2014-09-30 13:20:00,76.7,59.3,29.92,NE,45,1.0,1.0,55,0.00,,,0.00,Wunderground v.1.15,2014-09-30 17:20:00,
2014-09-30 13:30:00,76.5,59.6,29.92,SE,146,1.0,1.0,56,0.00,,,0.00,Wunderground v.1.15,2014-09-30 17:30:00,
2014-09-30 13:40:00,76.6,59.2,29.91,ENE,67,1.0,2.0,55,0.00,,,0.00,Wunderground v.1.15,2014-09-30 17:40:00,
2014-09-30 13:45:00,76.8,60.9,29.91,SE,126,1.0,3.0,58,0.00,,,0.00,Wunderground v.1.15,2014-09-30 17:45:00,
2014-09-30 13:54:00,77.5,59.5,29.90,ENE,74,1.0,3.0,54,0.00,,,0.00,Wunderground v.1.15,2014-09-30 17:54:00,
2014-09-30 14:00:00,77.6,59.6,29.91,SE,144,1.0,1.0,54,0.00,,,0.00,Wunderground v.1.15,2014-09-30 18:00:00,
2014-09-30 14:09:00,77.3,60.9,29.90,NNE,24,1.0,1.0,57,0.00,,,0.00,Wunderground v.1.15,2014-09-30 18:09:00,
2014-09-30 14:15:00,77.4,60.0,29.90,ENE,65,1.0,2.0,55,0.00,,,0.00,Wunderground v.1.15,2014-09-30 18:15:00,
2014-09-30 14:24:00,77.5,59.5,29.90,SE,141,1.0,3.0,54,0.00,,,0.00,Wunderground v.1.15,2014-09-30 18:24:00,
2014-09-30 14:34:00,77.2,59.8,29.90,NE,44,1.0,2.0,55,0.00,,,0.00,Wunderground v.1.15,2014-09-30 18:34:00,
2014-09-30 14:44:00,76.8,57.8,29.90,NNW,330,1.0,3.0,52,0.00,,,0.00,Wunderground v.1.15,2014-09-30 18:44:00,
2014-09-30 14:49:00,76.7,57.7,29.90,ENE,66,1.0,1.0,52,0.00,,,0.00,Wunderground v.1.15,2014-09-30 18:49:00,
2014-09-30 14:54:00,76.7,58.8,29.90,SSE,149,1.0,3.0,54,0.00,,,0.00,Wunderground v.1.15,2014-09-30 18:54:00,
2014-09-30 14:59:00,76.7,58.8,29.90,WSW,244,1.0,1.0,54,0.00,,,0.00,Wunderground v.1.15,2014-09-30 18:59:00,
2014-09-30 15:09:00,76.2,57.8,29.90,ENE,74,1.0,1.0,53,0.00,,,0.00,Wunderground v.1.15,2014-09-30 19:09:00,
2014-09-30 15:14:00,75.7,58.4,29.90,ENE,74,0.0,1.0,55,0.00,,,0.00,Wunderground v.1.15,2014-09-30 19:14:00,
2014-09-30 15:24:00,75.9,59.1,29.90,East,80,0.0,0.0,56,0.00,,,0.00,Wunderground v.1.15,2014-09-30 19:24:00,
2014-09-30 15:29:00,76.6,58.7,29.90,NNW,335,0.0,0.0,54,0.00,,,0.00,Wunderground v.1.15,2014-09-30 19:29:00,
2014-09-30 15:39:00,77.3,58.3,29.90,ENE,74,1.0,1.0,52,0.00,,,0.00,Wunderground v.1.15,2014-09-30 19:39:00,
2014-09-30 15:44:00,77.3,58.8,29.90,ENE,67,1.0,3.0,53,0.00,,,0.00,Wunderground v.1.15,2014-09-30 19:44:00,
2014-09-30 15:54:00,77.5,59.0,29.90,East,89,1.0,3.0,53,0.00,,,0.00,Wunderground v.1.15,2014-09-30 19:54:00,
2014-09-30 15:59:00,77.3,58.3,29.90,ENE,59,1.0,1.0,52,0.00,,,0.00,Wunderground v.1.15,2014-09-30 19:59:00,
2014-09-30 16:04:00,76.7,58.8,29.90,NE,42,1.0,1.0,54,0.00,,,0.00,Wunderground v.1.15,2014-09-30 20:04:00,
2014-09-30 16:15:00,75.3,59.5,29.89,ENE,67,1.0,2.0,58,0.00,,,0.00,Wunderground v.1.15,2014-09-30 20:15:00,
2014-09-30 16:20:00,75.1,58.3,29.89,ENE,67,0.0,1.0,56,0.00,,,0.00,Wunderground v.1.15,2014-09-30 20:20:00,
2014-09-30 16:30:00,75.2,58.4,29.89,ENE,70,1.0,1.0,56,0.00,,,0.00,Wunderground v.1.15,2014-09-30 20:30:00,
2014-09-30 16:40:00,74.8,59.0,29.90,NE,51,1.0,1.0,58,0.00,,,0.00,Wunderground v.1.15,2014-09-30 20:40:00,
2014-09-30 16:50:00,74.1,61.1,29.90,ENE,63,1.0,1.0,64,0.00,,,0.00,Wunderground v.1.15,2014-09-30 20:50:00,
2014-09-30 16:55:00,73.4,61.3,29.90,ENE,77,1.0,3.0,66,0.00,,,0.00,Wunderground v.1.15,2014-09-30 20:55:00,
2014-09-30 17:00:00,72.7,61.5,29.90,SSE,148,1.0,1.0,68,0.00,,,0.00,Wunderground v.1.15,2014-09-30 21:00:00,
2014-09-30 17:10:00,71.6,61.7,29.90,NE,48,1.0,1.0,71,0.00,,,0.00,Wunderground v.1.15,2014-09-30 21:10:00,
2014-09-30 17:15:00,71.3,61.8,29.90,SSW,193,1.0,2.0,72,0.00,,,0.00,Wunderground v.1.15,2014-09-30 21:15:00,
2014-09-30 17:24:00,71.0,61.5,29.90,NE,38,1.0,1.0,72,0.00,,,0.00,Wunderground v.1.15,2014-09-30 21:24:00,
2014-09-30 17:29:00,71.0,61.9,29.90,ENE,59,1.0,1.0,73,0.00,,,0.00,Wunderground v.1.15,2014-09-30 21:29:00,
2014-09-30 17:39:00,70.6,61.9,29.91,ENE,76,1.0,4.0,74,0.00,,,0.00,Wunderground v.1.15,2014-09-30 21:39:00,
2014-09-30 17:44:00,70.3,62.0,29.91,NE,52,1.0,6.0,75,0.00,,,0.00,Wunderground v.1.15,2014-09-30 21:44:00,
2014-09-30 17:49:00,69.9,61.6,29.91,ENE,65,2.0,2.0,75,0.00,,,0.00,Wunderground v.1.15,2014-09-30 21:49:00,
2014-09-30 17:54:00,69.7,61.8,29.91,ENE,73,1.0,6.0,76,0.00,,,0.00,Wunderground v.1.15,2014-09-30 21:54:00,